Eastlake, MI

4:21 AM EST on February 14, 2016 (GMT -0500)
Manistee County-Blacker

Weather History for KMBL - November, 2012

Change the Weather History Date:

Saturday, November 24, 2012

  Actual Average Record
Temperature  
Mean Temperature 29 °F -  
Max Temperature 30 °F 41 °F 60 °F (2001)
Min Temperature 28 °F 28 °F -4 °F (1950)
Degree Days  
Heating Degree Days 36    
Moisture  
Dew Point 18 °F    
Average Humidity 62    
Maximum Humidity 69    
Minimum Humidity 55    
Precipitation  
Precipitation 0.00 in - - ()
Sea Level Pressure  
Sea Level Pressure 30.09 in    
Wind  
Wind Speed 13 mph (WNW)    
Max Wind Speed 21 mph    
Max Gust Speed 31 mph    
Visibility 10 miles    
Events      
Averages and records for this station are not official NWS values.
T = Trace of Precipitation, MM = Missing Value Source: NWS Daily Summary

Daily Weather History Graph

Daily Weather History Graph

Search for Another Location

Airport or City:

Trip Planner

Search our weather history database for the weather conditions in past years. The results will help you decide how hot, cold, wet, or windy it might be!

Date:

Astronomy

Nov. 24, 2012 Rise Set
Actual Time 7:52 AM EST 5:10 PM EST
Civil Twilight 7:20 AM EST 5:42 PM EST
Nautical Twilight 6:45 AM EST 6:18 PM EST
Astronomical Twilight 6:10 AM EST 6:53 PM EST
Moon 3:00 PM EST (11/24) 4:02 AM EST (11/24)
Length of Visible Light 10h 21m
Length of Day
9h 17m
Waxing Gibbous, 87% of the Moon is Illuminated
Nov 24
Waxing Gibbous
Nov 28
Full
Dec 6
Last Quarter
Dec 13
New
Dec 20
First Quarter

Hourly Weather History & Observations

Time (EST) Temp. Windchill Dew Point Humidity Pressure Visibility Wind Dir Wind Speed Gust Speed Precip Events Conditions
12:15 AM 30.2 °F 18.9 °F 17.6 °F 60% 30.07 in 10.0 mi NW 16.1 mph 27.6 mph N/A   Overcast
12:35 AM 30.2 °F 19.3 °F 17.6 °F 60% 30.07 in 10.0 mi NW 15.0 mph 27.6 mph N/A   Overcast
12:55 AM 30.2 °F 19.8 °F 17.6 °F 60% 30.07 in 10.0 mi NW 13.8 mph 26.5 mph N/A   Overcast
1:15 AM 30.2 °F 18.5 °F 17.6 °F 60% 30.07 in 10.0 mi NNW 17.3 mph 27.6 mph N/A   Overcast
1:35 AM 30.2 °F 18.5 °F 17.6 °F 60% 30.07 in 10.0 mi NW 17.3 mph 25.3 mph N/A   Overcast
1:55 AM 30.2 °F 18.9 °F 15.8 °F 55% 30.08 in 10.0 mi NW 16.1 mph 23.0 mph N/A   Overcast
2:15 AM 30.2 °F 18.9 °F 17.6 °F 60% 30.08 in 10.0 mi NNW 16.1 mph 31.1 mph N/A   Overcast
2:35 AM 30.2 °F 17.8 °F 17.6 °F 60% 30.09 in 10.0 mi NNW 19.6 mph 23.0 mph N/A   Overcast
2:55 AM 30.2 °F 18.5 °F 17.6 °F 60% 30.09 in 10.0 mi NNW 17.3 mph 24.2 mph N/A   Overcast
3:15 AM 30.2 °F 18.5 °F 17.6 °F 60% 30.09 in 10.0 mi NNW 17.3 mph 25.3 mph N/A   Overcast
3:35 AM 30.2 °F 17.4 °F 17.6 °F 60% 30.09 in 10.0 mi NW 20.7 mph 26.5 mph N/A   Overcast
3:55 AM - - - N/A% 30.09 in 10.0 mi NW 15.0 mph 23.0 mph N/A   Overcast
4:15 AM 30.2 °F 19.8 °F 17.6 °F 60% 30.10 in 10.0 mi NW 13.8 mph 20.7 mph N/A   Overcast
4:55 AM 30.2 °F 17.4 °F 17.6 °F 60% 30.10 in 10.0 mi NW 20.7 mph 26.5 mph N/A   Overcast
5:15 AM 30.2 °F 18.9 °F 17.6 °F 60% 30.11 in 10.0 mi NW 16.1 mph 23.0 mph N/A   Overcast
5:35 AM 30.2 °F 18.9 °F 17.6 °F 60% 30.11 in 10.0 mi NW 16.1 mph 24.2 mph N/A   Overcast
5:55 AM 30.2 °F 21.3 °F 15.8 °F 55% 30.11 in 10.0 mi NW 10.4 mph 20.7 mph N/A   Overcast
6:15 AM 30.2 °F 19.8 °F 17.6 °F 60% 30.12 in 10.0 mi NW 13.8 mph 24.2 mph N/A   Overcast
6:35 AM 30.2 °F 19.3 °F 17.6 °F 60% 30.12 in 10.0 mi NNW 15.0 mph 20.7 mph N/A   Overcast
6:55 AM 30.2 °F 19.8 °F 17.6 °F 60% 30.12 in 10.0 mi NW 13.8 mph 19.6 mph N/A   Overcast
7:15 AM 30.2 °F 20.2 °F 17.6 °F 60% 30.12 in 10.0 mi NW 12.7 mph 23.0 mph N/A   Overcast
7:35 AM 28.4 °F 17.0 °F 17.6 °F 64% 30.13 in 10.0 mi NW 15.0 mph 23.0 mph N/A   Overcast
7:55 AM 30.2 °F 19.8 °F 17.6 °F 60% 30.14 in 10.0 mi NW 13.8 mph 20.7 mph N/A   Overcast
8:15 AM 30.2 °F 20.2 °F 17.6 °F 60% 30.14 in 10.0 mi NNW 12.7 mph 20.7 mph N/A   Overcast
8:35 AM 30.2 °F 19.8 °F 17.6 °F 60% 30.15 in 10.0 mi NW 13.8 mph 19.6 mph N/A   Overcast
8:55 AM 30.2 °F 20.2 °F 17.6 °F 60% 30.15 in 10.0 mi NW 12.7 mph 17.3 mph N/A   Overcast
9:15 AM 30.2 °F 19.3 °F 17.6 °F 60% 30.14 in 10.0 mi NW 15.0 mph - N/A   Overcast
9:35 AM 28.4 °F 18.0 °F 17.6 °F 64% 30.15 in 10.0 mi NW 12.7 mph 21.9 mph N/A   Overcast
9:55 AM 30.2 °F 20.8 °F 19.4 °F 64% 30.15 in 10.0 mi NNW 11.5 mph 17.3 mph N/A   Overcast
10:15 AM 30.2 °F 19.8 °F 17.6 °F 60% 30.15 in 10.0 mi NNW 13.8 mph - N/A   Overcast
10:35 AM 30.2 °F 20.8 °F 17.6 °F 60% 30.15 in 10.0 mi NW 11.5 mph 21.9 mph N/A   Overcast
10:55 AM 30.2 °F 20.2 °F 19.4 °F 64% 30.15 in 10.0 mi NW 12.7 mph 16.1 mph N/A   Overcast
11:15 AM 30.2 °F 21.3 °F 19.4 °F 64% 30.15 in 10.0 mi NW 10.4 mph - N/A   Overcast
11:35 AM 30.2 °F 21.9 °F 17.6 °F 60% 30.15 in 10.0 mi NW 9.2 mph 17.3 mph N/A   Overcast
11:55 AM 30.2 °F 21.3 °F 19.4 °F 64% 30.15 in 10.0 mi NW 10.4 mph - N/A   Overcast
12:15 PM 30.2 °F 21.3 °F 19.4 °F 64% 30.14 in 10.0 mi NW 10.4 mph - N/A   Overcast
12:35 PM 30.2 °F 21.9 °F 19.4 °F 64% 30.13 in 10.0 mi NW 9.2 mph - N/A   Overcast
12:55 PM 30.2 °F 21.9 °F 19.4 °F 64% 30.13 in 10.0 mi NW 9.2 mph 16.1 mph N/A   Overcast
1:15 PM 30.2 °F 21.3 °F 19.4 °F 64% 30.12 in 10.0 mi WNW 10.4 mph - N/A   Overcast
1:35 PM 30.2 °F 21.9 °F 17.6 °F 60% 30.12 in 10.0 mi NW 9.2 mph - N/A   Overcast
1:55 PM 30.2 °F 22.6 °F 17.6 °F 60% 30.12 in 10.0 mi WNW 8.1 mph - N/A   Overcast
2:15 PM 30.2 °F 20.2 °F 19.4 °F 64% 30.12 in 10.0 mi WNW 12.7 mph - N/A   Overcast
2:35 PM 30.2 °F 21.9 °F 17.6 °F 60% 30.12 in 10.0 mi WNW 9.2 mph - N/A   Overcast
2:55 PM 30.2 °F 20.8 °F 19.4 °F 64% 30.11 in 10.0 mi NW 11.5 mph - N/A   Overcast
3:15 PM 30.2 °F 21.3 °F 19.4 °F 64% 30.10 in 10.0 mi WNW 10.4 mph - N/A   Overcast
3:35 PM 30.2 °F 23.4 °F 17.6 °F 60% 30.10 in 10.0 mi West 6.9 mph - N/A   Overcast
3:55 PM 30.2 °F 26.7 °F 19.4 °F 64% 30.10 in 10.0 mi West 3.5 mph - N/A   Overcast
4:15 PM 30.2 °F 24.3 °F 19.4 °F 64% 30.10 in 10.0 mi WSW 5.8 mph - N/A   Overcast
4:35 PM 30.2 °F 23.4 °F 17.6 °F 60% 30.10 in 10.0 mi WSW 6.9 mph - N/A   Overcast
4:55 PM 30.2 °F 24.3 °F 17.6 °F 60% 30.10 in 10.0 mi NW 5.8 mph - N/A   Overcast
5:15 PM 30.2 °F 21.3 °F 17.6 °F 60% 30.09 in 10.0 mi West 10.4 mph - N/A   Overcast
5:35 PM 28.4 °F 22.2 °F 17.6 °F 64% 30.09 in 10.0 mi WSW 5.8 mph - N/A   Overcast
5:55 PM 28.4 °F 23.3 °F 17.6 °F 64% 30.08 in 10.0 mi WSW 4.6 mph - N/A   Overcast
6:15 PM 28.4 °F 23.3 °F 19.4 °F 69% 30.08 in 10.0 mi West 4.6 mph - N/A   Overcast
6:35 PM 28.4 °F 22.2 °F 17.6 °F 64% 30.07 in 10.0 mi WSW 5.8 mph - N/A   Overcast
6:55 PM 28.4 °F 22.2 °F 17.6 °F 64% 30.06 in 10.0 mi WSW 5.8 mph - N/A   Overcast
7:15 PM 28.4 °F 23.3 °F 17.6 °F 64% 30.06 in 10.0 mi SSW 4.6 mph - N/A   Overcast
7:35 PM 28.4 °F 23.3 °F 17.6 °F 64% 30.06 in 10.0 mi South 4.6 mph - N/A   Overcast
8:15 PM 28.4 °F 23.3 °F 17.6 °F 64% 30.04 in 10.0 mi South 4.6 mph - N/A   Overcast
8:35 PM 28.4 °F 22.2 °F 17.6 °F 64% 30.02 in 10.0 mi South 5.8 mph - N/A   Overcast
8:55 PM 28.4 °F 23.3 °F 17.6 °F 64% 30.02 in 10.0 mi South 4.6 mph - N/A   Overcast
9:35 PM 28.4 °F 23.3 °F 17.6 °F 64% 30.02 in 10.0 mi South 4.6 mph - N/A   Overcast
9:55 PM 28.4 °F 23.3 °F 17.6 °F 64% 30.02 in 10.0 mi SSE 4.6 mph - N/A   Overcast
10:15 PM 28.4 °F 23.3 °F 17.6 °F 64% 30.00 in 10.0 mi South 4.6 mph - N/A   Overcast
10:35 PM 28.4 °F 22.2 °F 17.6 °F 64% 29.99 in 10.0 mi SSE 5.8 mph - N/A   Overcast
10:55 PM 28.4 °F 23.3 °F 17.6 °F 64% 29.98 in 10.0 mi South 4.6 mph - N/A   Overcast
11:15 PM 28.4 °F 21.2 °F 17.6 °F 64% 29.97 in 10.0 mi SSE 6.9 mph - N/A   Overcast
11:35 PM 28.4 °F 21.2 °F 17.6 °F 64% 29.96 in 10.0 mi SSE 6.9 mph - N/A   Overcast
11:55 PM 28.4 °F 23.3 °F 17.6 °F 64% 29.95 in 10.0 mi SSE 4.6 mph - N/A   Overcast